Regional Weather Roundup
Issued by NWS

Home | Current Version | Previous Version | Text Only | Print | Product List | Glossary On
Versions: 1 2 3 4 5 6 7 8 9 10 11 12 13 14 15 16 17 18 19 20 21 22 23 24 25 26 27 28 29 30 31 32 33 34 35 36 37 38 39 40 41 42 43 44 45 46 47 48 49 50
000
ASUS46 KSEW 031110
RWRWA

WASHINGTON REGIONAL WEATHER ROUNDUP
NATIONAL WEATHER SERVICE SEATTLE WA
400 AM PDT SUN MAY 03 2015

NOTE:"FAIR" INDICATES FEW OR NO CLOUDS BELOW 12,000 FEET WITH NO
SIGNIFICANT WEATHER AND/OR OBSTRUCTIONS TO VISIBILITY.

WAZ505-507>509-031200-
SEATTLE, TACOMA, EVERETT, AND VICINITY

CITY           SKY/WX    TMP DP  RH WIND       PRES   REMARKS
EVERETT        CLEAR     44  41  89 N3        30.01S
BOEING FIELD   CLEAR     49  39  68 CALM      30.01S
RENTON         CLEAR     43  37  79 S3        30.01S
SEATAC AIRPORT CLEAR     48  38  68 NE6       30.01S
JBLM-MCCHORD   CLEAR     37  37  99 CALM      30.01S
PUYALLUP       FAIR      36  36 100 CALM      30.01R
BREMERTON      CLEAR     36  36 100 CALM      30.02S
JBLM-FT LEWIS  CLEAR     37  35  92 SE3       30.00S
TACOMA NARROWS CLEAR     45  38  76 CALM      30.01S
$$

WAZ001-503-506-510-514-515-031200-
NORTH INTERIOR

CITY           SKY/WX    TMP DP  RH WIND       PRES   REMARKS
BELLINGHAM     CLEAR     40  38  93 CALM      30.01S
FRIDAY HARBOR  CLEAR     37  35  92 CALM      30.02F
EASTSOUND      CLEAR     41  37  87 CALM      30.00S
PORT ANGELES   CLEAR     40  34  79 SW7       30.02S
NAS WHIDBEY    FOG       42  39  89 CALM      30.02S VSB 1/4
ARLINGTON      CLEAR     36  28  75 CALM      30.03S
BURLINGTON     CLEAR     41  37  87 NE3       30.02S
$$

WAZ020-022-039-040-504-511-512-031200-
SOUTHWEST INTERIOR

CITY           SKY/WX    TMP DP  RH WIND       PRES   REMARKS
SHELTON        CLEAR     36  34  92 CALM      29.99S
OLYMPIA        CLEAR     36  34  92 CALM      30.01S
CHEHALIS       FAIR      39  39 100 CALM      30.00S
KELSO          CLEAR     41  36  81 N3        30.03S
VANCOUVER      CLEAR     45  38  76 CALM      29.97S
SCAPPOOSE, OR  CLEAR     49  37  63 NW5       29.97S
PORTLAND, OR   CLEAR     48  41  76 CALM      29.98S
$$

WAZ021-516-517-031200-
WASHINGTON COAST

CITY           SKY/WX    TMP DP  RH WIND       PRES   REMARKS
FORKS          CLOUDY    42  41  96 E5        30.01F
HOQUIAM        CLEAR     41  40  96 CALM      30.01S
ASTORIA, OR    MOCLDY    42  39  89 E5        30.00F
$$

WAZ019-023-024-040-518-519-031200-
CASCADE MOUNTAINS AND COLUMBIA GORGE

CITY           SKY/WX    TMP DP  RH WIND       PRES   REMARKS
TROUTDALE, OR  CLEAR     42  38  85 E3        29.96S
THE DALLES, OR CLEAR     47  39  74 SE6       29.94R
$$

WAZ026-027-041>044-520-521-031200-
EAST SLOPES

CITY           SKY/WX    TMP DP  RH WIND       PRES   REMARKS
OMAK           CLEAR     45  25  45 N9        30.00S
WENATCHEE      CLEAR     50  33  52 NW9       29.97R
ELLENSBURG     CLEAR     40  32  73 NE6       29.96R
YAKIMA         CLEAR     48  34  58 W8        29.95S
$$

WAZ028-034-035-031200-
COLUMBIA BASIN

CITY           SKY/WX    TMP DP  RH WIND       PRES   REMARKS
EPHRATA        CLEAR     49  25  39 N8        29.95R
MOSES LAKE     CLEAR     39  29  67 N6        29.96R
PASCO          CLEAR     38  32  79 W5        29.95R
HERMISTON, OR  CLEAR     36  33  89 CALM      29.93R
$$

WAZ036>038-031200-
NORTHEAST WASHINGTON

CITY           SKY/WX    TMP DP  RH WIND       PRES   REMARKS
SPOKANE GEIGER CLOUDY    45  26  47 NE5       29.96S
SPOKANE FELTS  PTCLDY    38  32  79 CALM      29.98R
FAIRCHILD AFB  PTCLDY    42  22  44 N6        29.96R
COEURDALENE,ID PTCLDY    43  25  49 NE9       29.99R
DEER PARK      PTCLDY    30  24  78 CALM      29.98S
$$

WAZ029>033-031200-
SOUTHEAST WASHINGTON

CITY           SKY/WX    TMP DP  RH WIND       PRES   REMARKS
PULLMAN        CLEAR     30  24  78 CALM      29.95F
LEWISTON, ID   CLEAR     43  28  55 CALM      29.94S
WALLA WALLA    CLEAR     46  30  53 E3        29.92R
PENDLETON, OR  CLEAR     40  31  70 SE8       29.92S
$$


USA.gov is the U.S. government's official web portal to all federal, state and local government web resources and services.